FW1633 Weather Reports


time (UTC)temp
F
wind
direction
speed
knots
gust
knots
rain 1hr
in
rain 24hr
in
rain mn
in
humidity
%
barometer
mb
20260504193011 72 204 0.0 0.0 0.00 0.00 0.00 46 1010.4
20260504192506 72 202 0.0 0.0 0.00 0.00 0.00 45 1010.5
20260504192006 73 191 0.0 0.0 0.00 0.00 0.00 43 1010.5
20260504191520 73 110 0.0 0.0 0.00 0.00 0.00 40 1010.7
20260504191012 72 274 0.0 0.0 0.00 0.00 0.00 37 1010.7
20260504190507 73 209 0.0 0.0 0.00 0.00 0.00 37 1010.7
20260504190004 73 176 0.0 0.0 0.00 0.00 0.00 37 1010.8
20260504185506 73 222 0.0 0.0 0.00 0.00 0.00 37 1010.8
20260504185002 73 249 0.0 0.0 0.00 0.00 0.00 37 1010.8
20260504184512 72 192 0.0 0.0 0.00 0.00 0.00 37 1010.9
20260504184003 72 193 0.0 0.0 0.00 0.00 0.00 38 1010.9
20260504183505 72 226 0.0 0.0 0.00 0.00 0.00 37 1011.0
20260504183018 72 221 0.0 0.0 0.00 0.00 0.00 37 1011.0
20260504182508 72 254 0.0 0.0 0.00 0.00 0.00 38 1011.1
20260504182004 71 238 0.0 0.0 0.00 0.00 0.00 38 1011.0
20260504181516 72 218 0.0 0.0 0.00 0.00 0.00 38 1011.2
20260504181008 71 189 0.0 0.0 0.00 0.00 0.00 38 1011.2
20260504180504 71 218 0.0 0.0 0.00 0.00 0.00 38 1011.2
20260504180020 71 199 0.0 0.0 0.00 0.00 0.00 39 1011.3
20260504175507 71 106 0.0 0.0 0.00 0.00 0.00 38 1011.5
20260504175011 71 206 0.0 0.0 0.00 0.00 0.00 38 1011.5
20260504174506 71 211 0.0 0.0 0.00 0.00 0.00 38 1011.6
20260504174004 71 43 0.0 0.0 0.00 0.00 0.00 38 1011.7
20260504173506 72 228 0.0 0.0 0.00 0.00 0.00 37 1011.6
20260504173015 71 195 0.0 0.0 0.00 0.00 0.00 38 1011.7
20260504172502 70 264 0.0 0.0 0.00 0.00 0.00 38 1011.8
20260504172002 70 269 0.0 0.0 0.00 0.00 0.00 39 1011.8
20260504171518 70 282 0.0 0.0 0.00 0.00 0.00 38 1011.9
20260504171008 70 155 0.0 0.0 0.00 0.00 0.00 39 1011.9
20260504170506 70 329 0.0 0.0 0.00 0.00 0.00 38 1012.0
20260504151015 67 262 0.0 0.0 0.00 0.00 0.00 41 1013.5
20260504150503 66 257 0.0 0.0 0.00 0.00 0.00 40 1013.6
20260504141009 63 195 0.0 0.0 0.00 0.00 0.00 48 1013.8
20260504140507 63 293 0.0 0.0 0.00 0.00 0.00 49 1013.9
20260504130507 60 265 0.0 0.0 0.00 0.00 0.00 54 1014.4
20260504110505 54 179 0.0 0.0 0.00 0.00 0.00 57 1014.8
20260504100505 52 235 0.0 0.0 0.00 0.00 0.00 56 1014.4
20260504081511 54 195 0.0 0.0 0.00 0.00 0.00 51 1013.8
20260504081004 54 219 0.0 0.0 0.00 0.00 0.00 50 1013.8
20260504080503 54 223 0.0 0.0 0.00 0.00 0.00 50 1013.8
20260504050503 55 228 0.0 0.0 0.00 0.00 0.00 50 1013.2
20260504050007 54 228 0.0 0.0 0.00 0.00 0.00 50 1013.2
20260504045504 55 251 0.0 0.0 0.00 0.00 0.00 50 1013.3
20260504045007 55 223 0.0 0.0 0.00 0.00 0.00 50 1013.3
20260504044530 55 225 0.0 0.0 0.00 0.00 0.00 50 1013.2
20260504044002 55 211 0.0 0.0 0.00 0.00 0.00 50 1013.2
20260504043501 55 229 0.0 0.0 0.00 0.00 0.00 49 1013.1
20260504043004 55 233 0.0 0.0 0.00 0.00 0.00 49 1013.0
20260504042503 55 235 0.0 0.0 0.00 0.00 0.00 49 1012.8
20260504042006 55 211 0.0 0.0 0.00 0.00 0.00 49 1012.9
20260504041503 55 230 0.0 0.0 0.00 0.00 0.00 48 1012.8
20260504041002 55 265 0.0 0.0 0.00 0.00 0.00 48 1012.8
20260504040503 55 238 0.0 0.0 0.00 0.00 0.00 48 1012.8
20260504040005 55 248 0.0 0.0 0.00 0.00 0.00 48 1012.8
20260504035506 55 245 0.0 0.0 0.00 0.00 0.00 48 1012.8
20260504035002 55 219 0.0 0.0 0.00 0.00 0.00 48 1012.8
20260504034508 55 278 0.0 0.0 0.00 0.00 0.00 48 1012.8
20260504034003 55 214 0.0 0.0 0.00 0.00 0.00 47 1012.8
20260504033505 55 214 0.0 0.0 0.00 0.00 0.00 47 1012.9
20260504033016 55 245 0.0 0.0 0.00 0.00 0.00 47 1012.8
20260504032503 55 255 0.0 0.0 0.00 0.00 0.00 47 1012.8
20260504032007 55 226 0.0 0.0 0.00 0.00 0.00 47 1012.8
20260504031503 55 232 0.0 0.0 0.00 0.00 0.00 47 1012.8
20260504031002 54 224 0.0 0.0 0.00 0.00 0.00 47 1012.9
20260504030502 54 231 0.0 0.0 0.00 0.00 0.00 48 1012.9
20260504030004 54 229 0.0 0.0 0.00 0.00 0.00 48 1012.9
20260504025503 54 233 0.0 0.0 0.00 0.00 0.00 48 1012.9
20260504025003 54 233 0.0 0.0 0.00 0.00 0.00 48 1013.0
20260504024505 54 233 0.0 0.0 0.00 0.00 0.00 48 1013.0
20260504024006 55 233 0.0 0.0 0.00 0.00 0.00 47 1013.0
20260504023507 55 233 0.0 0.0 0.00 0.00 0.00 45 1013.0
20260504023008 55 233 0.0 0.0 0.00 0.00 0.00 45 1013.0
20260504022504 56 233 0.0 0.0 0.00 0.00 0.00 45 1013.0
20260504022003 56 233 0.0 0.0 0.00 0.00 0.00 44 1013.0
20260504021511 56 233 0.0 0.0 0.00 0.00 0.00 43 1013.1
20260504021006 56 234 0.0 0.0 0.00 0.00 0.00 43 1013.0
20260504020506 56 224 0.0 0.0 0.00 0.00 0.00 43 1012.9
20260504020019 56 224 0.0 0.0 0.00 0.00 0.00 42 1012.9
20260504015503 56 221 0.0 0.0 0.00 0.00 0.00 42 1013.0
20260504015002 57 231 0.0 0.0 0.00 0.00 0.00 42 1012.9
20260504014505 57 252 0.0 0.0 0.00 0.00 0.00 42 1012.9
20260504014003 57 275 0.0 0.0 0.00 0.00 0.00 42 1012.8
20260504013503 57 230 0.0 0.0 0.00 0.00 0.00 42 1012.8
20260504013009 56 238 0.0 0.0 0.00 0.00 0.00 43 1012.8
20260504012504 56 235 0.0 0.0 0.00 0.00 0.00 43 1012.7
20260504012004 56 226 0.0 0.0 0.00 0.00 0.00 43 1012.6
20260504011509 57 223 0.0 0.0 0.00 0.00 0.00 43 1012.5
20260504011007 57 233 0.0 0.0 0.00 0.00 0.00 42 1012.4
20260504010503 57 224 0.0 0.0 0.00 0.00 0.00 43 1012.3
20260504010018 57 231 0.0 0.0 0.00 0.00 0.00 43 1012.3
20260504005506 57 233 0.0 0.0 0.00 0.00 0.00 41 1012.3
20260504005005 57 221 0.0 0.0 0.00 0.00 0.00 40 1012.2
20260504004520 57 258 0.0 0.0 0.00 0.00 0.00 40 1012.2
20260504004007 58 302 0.0 0.0 0.00 0.00 0.00 39 1012.1
20260504003503 58 266 0.0 0.0 0.00 0.00 0.00 39 1012.1
20260504003005 58 264 0.0 0.0 0.00 0.00 0.00 39 1012.0
20260504002503 58 261 0.0 0.0 0.00 0.00 0.00 40 1012.0
20260504002003 58 253 0.0 0.0 0.00 0.00 0.00 39 1011.9
20260504001508 58 292 0.0 0.0 0.00 0.00 0.00 39 1011.7
20260504001004 58 339 0.0 0.0 0.00 0.00 0.00 39 1011.6
20260504000504 58 64 0.0 0.0 0.00 0.00 0.00 40 1011.6
20260504000014 58 304 0.0 0.0 0.00 0.00 0.00 40 1011.6
20260503235503 58 277 0.0 0.0 0.00 0.00 0.00 40 1011.6
20260503235007 58 36 0.0 0.0 0.00 0.00 0.00 42 1011.5
20260503234516 58 350 0.0 0.0 0.00 0.00 0.00 44 1011.5
20260503234011 58 20 0.0 0.0 0.00 0.00 0.00 42 1011.5
20260503233508 58 52 0.0 0.0 0.00 0.00 0.00 43 1011.3
20260503233021 58 309 0.0 0.0 0.00 0.00 0.00 40 1011.3
20260503232506 58 314 0.0 0.0 0.00 0.00 0.00 41 1011.2
20260503232003 58 353 0.0 0.0 0.00 0.00 0.00 37 1011.2
20260503231504 58 275 0.0 0.0 0.00 0.00 0.00 38 1011.1
20260503231004 58 326 0.0 0.0 0.00 0.00 0.00 38 1011.1
20260503230505 58 65 0.0 0.0 0.00 0.00 0.00 40 1011.1
20260503230006 58 314 0.0 0.0 0.00 0.00 0.00 41 1011.1
20260503225504 59 7 0.0 0.0 0.00 0.00 0.00 40 1011.0
20260503225004 59 323 0.0 0.0 0.00 0.00 0.00 41 1011.0
20260503224515 59 60 0.0 0.0 0.00 0.00 0.00 40 1011.0
20260503224007 59 355 0.0 0.0 0.00 0.00 0.00 42 1011.1
20260503223507 59 270 0.0 0.0 0.00 0.00 0.00 36 1011.1
20260503223020 59 309 0.0 0.0 0.00 0.00 0.00 38 1011.0
20260503222510 59 273 0.0 0.0 0.00 0.00 0.00 39 1011.0
20260503222006 59 15 0.0 0.0 0.00 0.00 0.00 41 1011.0
20260503221531 59 4 0.0 0.0 0.00 0.00 0.00 43 1011.0
20260503221008 59 94 0.0 0.0 0.00 0.00 0.00 39 1010.9
20260503220508 59 8 0.0 0.0 0.00 0.00 0.00 40 1011.0
20260503220007 59 345 0.0 0.0 0.00 0.00 0.00 40 1011.0
20260503215504 60 354 0.0 0.0 0.00 0.00 0.00 34 1011.1
20260503215004 60 305 0.0 0.0 0.00 0.00 0.00 34 1011.1
20260503214514 60 292 0.0 0.0 0.00 0.00 0.00 34 1011.1
20260503214008 59 60 0.0 0.0 0.00 0.00 0.00 36 1011.1
20260503213505 59 323 0.0 0.0 0.00 0.00 0.00 38 1011.0
20260503213027 59 24 0.0 0.0 0.00 0.00 0.00 37 1010.9
20260503212505 59 308 0.0 0.0 0.00 0.00 0.00 36 1010.9
20260503212006 59 319 0.0 0.0 0.00 0.00 0.00 36 1010.9
20260503211522 59 280 0.0 0.0 0.00 0.00 0.00 36 1010.9
20260503211011 59 348 0.0 0.0 0.00 0.00 0.00 38 1010.8
20260503210509 58 332 0.0 0.0 0.00 0.00 0.00 38 1010.6
20260503210026 59 294 0.0 0.0 0.00 0.00 0.00 42 1010.7
20260503205507 58 289 0.0 0.0 0.00 0.00 0.00 37 1010.7
20260503205015 58 358 0.0 0.0 0.00 0.00 0.00 38 1010.6
20260503204527 58 212 0.0 0.0 0.00 0.00 0.00 37 1010.6
20260503204007 57 243 0.0 0.0 0.00 0.00 0.00 43 1010.8
20260503203502 57 298 0.0 0.0 0.00 0.00 0.00 40 1010.8
20260503203012 58 39 0.0 0.0 0.00 0.00 0.00 43 1010.8
20260503202505 58 345 0.0 0.0 0.00 0.00 0.00 42 1010.8
20260503202006 58 295 0.0 0.0 0.00 0.00 0.00 36 1010.8
20260503201527 58 338 0.0 0.0 0.00 0.00 0.00 39 1010.8
20260503201008 58 23 0.0 0.0 0.00 0.00 0.00 39 1010.9
20260503200509 58 85 0.0 0.0 0.00 0.00 0.00 41 1011.0
20260503200030 57 285 0.0 0.0 0.00 0.00 0.00 43 1011.0
20260503195507 57 306 0.0 0.0 0.00 0.00 0.00 41 1010.9
20260503195007 58 268 0.0 0.0 0.00 0.00 0.00 39 1011.0
20260503194528 58 305 0.0 0.0 0.00 0.00 0.00 41 1010.9
20260503194009 57 290 0.0 0.0 0.00 0.00 0.00 43 1011.0
20260503193513 57 18 0.0 0.0 0.00 0.00 0.00 45 1011.0